RYR52TQ LEVC-LEST

Flight info

Callsign RYR52TQ
Flight time 1h 15m
Altitude 32000
Route CENTA N733 FORNO
Aircraft B738/M-SDE2E3FGHIRWXY/LB1

Departure

Time 2026-04-29 19:06
Airport Valencia Airport (LEVC)

Arrival

Time 2026-04-29 20:22
Airport Santiago-Rosalía de Castro Airport (LEST)
Time Latitude Longitude Altitude Speed Heading
2026-04-29 18:37 39.48995 -0.47644 203 ft 0 kts 206°
2026-04-29 19:01 39.48995 -0.47645 202 ft 0 kts 206°
2026-04-29 19:01 39.48984 -0.47684 207 ft 10 kts 286°
2026-04-29 19:01 39.49032 -0.47761 207 ft 11 kts 283°
2026-04-29 19:01 39.49030 -0.47862 212 ft 12 kts 275°
2026-04-29 19:02 39.49059 -0.47959 206 ft 12 kts 297°
2026-04-29 19:02 39.49081 -0.48024 212 ft 13 kts 294°
2026-04-29 19:02 39.49159 -0.48235 214 ft 21 kts 296°
2026-04-29 19:02 39.49223 -0.48401 215 ft 20 kts 297°
2026-04-29 19:03 39.49286 -0.48563 222 ft 20 kts 296°
2026-04-29 19:03 39.49326 -0.48668 224 ft 19 kts 296°
2026-04-29 19:03 39.49385 -0.48822 225 ft 19 kts 296°
2026-04-29 19:03 39.49443 -0.48972 227 ft 19 kts 296°
2026-04-29 19:04 39.49508 -0.49147 229 ft 23 kts 295°
2026-04-29 19:04 39.49576 -0.49330 232 ft 22 kts 296°
2026-04-29 19:04 39.49644 -0.49506 236 ft 22 kts 296°
2026-04-29 19:04 39.49712 -0.49685 241 ft 23 kts 296°
2026-04-29 19:05 39.49786 -0.49878 248 ft 23 kts 295°
2026-04-29 19:05 39.49733 -0.50006 252 ft 19 kts 199°
2026-04-29 19:05 39.49624 -0.49969 250 ft 19 kts 113°
2026-04-29 19:05 39.49508 -0.49669 239 ft 72 kts 116°
2026-04-29 19:06 39.49187 -0.48821 225 ft 138 kts 116°
2026-04-29 19:06 39.48701 -0.47550 595 ft 160 kts 116°
2026-04-29 19:06 39.47704 -0.45009 2105 ft 164 kts 116°
2026-04-29 19:07 39.47129 -0.43619 2344 ft 192 kts 124°
2026-04-29 19:07 39.46457 -0.42769 2452 ft 209 kts 148°
2026-04-29 19:07 39.44530 -0.41772 2610 ft 243 kts 146°
2026-04-29 19:07 39.43408 -0.40033 2982 ft 259 kts 115°
2026-04-29 19:08 39.42702 -0.37894 3668 ft 262 kts 115°
2026-04-29 19:08 39.41853 -0.35805 4405 ft 264 kts 120°
2026-04-29 19:08 39.40887 -0.33769 5072 ft 269 kts 123°
2026-04-29 19:08 39.39847 -0.31740 5724 ft 272 kts 129°
2026-04-29 19:09 39.38306 -0.30352 6353 ft 276 kts 164°
2026-04-29 19:09 39.36411 -0.30345 7081 ft 278 kts 198°
2026-04-29 19:09 39.34787 -0.31677 7810 ft 281 kts 225°
2026-04-29 19:09 39.33668 -0.33751 8521 ft 285 kts 242°
2026-04-29 19:10 39.32807 -0.36071 9253 ft 288 kts 243°
2026-04-29 19:10 39.31926 -0.38405 10025 ft 290 kts 245°
2026-04-29 19:10 39.31171 -0.40875 10489 ft 306 kts 250°
2026-04-29 19:10 39.30602 -0.43622 10662 ft 328 kts 257°
2026-04-29 19:11 39.30284 -0.46611 11115 ft 341 kts 264°
2026-04-29 19:11 39.30257 -0.49686 11808 ft 345 kts 271°
2026-04-29 19:11 39.30541 -0.52767 12612 ft 347 kts 278°
2026-04-29 19:11 39.31140 -0.55799 13381 ft 351 kts 285°
2026-04-29 19:12 39.32061 -0.58744 14113 ft 356 kts 293°
2026-04-29 19:12 39.33297 -0.61541 14849 ft 361 kts 301°
2026-04-29 19:12 39.34831 -0.64131 15622 ft 366 kts 310°
2026-04-29 19:12 39.36121 -0.65629 16113 ft 371 kts 319°
2026-04-29 19:13 39.38897 -0.68246 17041 ft 375 kts 321°
2026-04-29 19:13 39.41043 -0.70193 17726 ft 378 kts 321°
2026-04-29 19:13 39.43198 -0.72167 18376 ft 381 kts 321°
2026-04-29 19:13 39.45352 -0.74175 19023 ft 383 kts 320°
2026-04-29 19:14 39.47519 -0.76224 19635 ft 387 kts 320°
2026-04-29 19:14 39.49692 -0.78302 20211 ft 390 kts 320°
2026-04-29 19:14 39.51880 -0.80405 20780 ft 393 kts 320°
2026-04-29 19:14 39.54085 -0.82532 21351 ft 397 kts 320°
2026-04-29 19:15 39.56306 -0.84678 21878 ft 400 kts 319°
2026-04-29 19:15 39.58542 -0.86840 22416 ft 402 kts 319°
2026-04-29 19:15 39.60790 -0.89014 22903 ft 405 kts 319°
2026-04-29 19:15 39.63062 -0.91213 23379 ft 408 kts 319°
2026-04-29 19:16 39.65346 -0.93424 23842 ft 411 kts 319°
2026-04-29 19:16 39.67648 -0.95655 24305 ft 414 kts 319°
2026-04-29 19:16 39.69934 -0.97931 24749 ft 414 kts 314°
2026-04-29 19:16 39.71769 -1.00762 25151 ft 408 kts 297°
2026-04-29 19:17 39.73168 -1.03958 25649 ft 407 kts 296°
2026-04-29 19:17 39.74539 -1.07190 26129 ft 408 kts 295°
2026-04-29 19:17 39.75903 -1.10407 26699 ft 406 kts 295°
2026-04-29 19:17 39.77267 -1.13600 27312 ft 402 kts 295°
2026-04-29 19:18 39.78627 -1.16757 27928 ft 399 kts 295°
2026-04-29 19:18 39.79526 -1.18837 28292 ft 397 kts 295°
2026-04-29 19:18 39.81336 -1.23013 28976 ft 396 kts 295°
2026-04-29 19:18 39.82684 -1.26123 29504 ft 393 kts 295°
2026-04-29 19:19 39.84018 -1.29201 30095 ft 389 kts 295°
2026-04-29 19:19 39.85327 -1.32225 30558 ft 388 kts 295°
2026-04-29 19:19 39.86647 -1.35281 30987 ft 387 kts 294°
2026-04-29 19:19 39.87962 -1.38325 31460 ft 385 kts 294°
2026-04-29 19:20 39.89269 -1.41354 31914 ft 383 kts 294°
2026-04-29 19:20 39.91870 -1.47391 31954 ft 380 kts 294°
2026-04-29 19:21 39.94459 -1.53414 31958 ft 382 kts 294°
2026-04-29 19:21 39.97054 -1.59466 31963 ft 383 kts 294°
2026-04-29 19:22 39.99654 -1.65537 31957 ft 384 kts 294°
2026-04-29 19:22 40.02259 -1.71632 31960 ft 385 kts 294°
2026-04-29 19:23 40.04857 -1.77723 31949 ft 383 kts 294°
2026-04-29 19:23 40.07442 -1.83791 31959 ft 381 kts 294°
2026-04-29 19:24 40.10008 -1.89834 31955 ft 380 kts 294°
2026-04-29 19:24 40.12565 -1.95866 31957 ft 379 kts 294°
2026-04-29 19:25 40.15120 -2.01900 31953 ft 379 kts 294°
2026-04-29 19:25 40.17689 -2.07926 31952 ft 380 kts 294°
2026-04-29 19:26 40.20265 -2.13969 31934 ft 381 kts 294°
2026-04-29 19:26 40.22827 -2.20029 31927 ft 381 kts 293°
2026-04-29 19:27 40.25371 -2.26101 31942 ft 381 kts 293°
2026-04-29 19:27 40.27919 -2.32192 31936 ft 382 kts 293°
2026-04-29 19:28 40.30471 -2.38301 31939 ft 382 kts 293°
2026-04-29 19:28 40.33011 -2.44392 31926 ft 384 kts 293°
2026-04-29 19:29 40.35570 -2.50539 31909 ft 384 kts 293°
2026-04-29 19:29 40.38110 -2.56698 31915 ft 384 kts 292°
2026-04-29 19:30 40.40565 -2.62933 31921 ft 385 kts 291°
2026-04-29 19:30 40.43004 -2.69191 31905 ft 386 kts 291°
2026-04-29 19:31 40.45449 -2.75452 31917 ft 386 kts 291°
2026-04-29 19:31 40.47900 -2.81727 31905 ft 386 kts 291°
2026-04-29 19:32 40.50349 -2.88006 31913 ft 387 kts 291°
2026-04-29 19:32 40.52802 -2.94307 31905 ft 387 kts 291°
2026-04-29 19:33 40.55251 -3.00610 31911 ft 387 kts 291°
2026-04-29 19:33 40.57704 -3.06936 31903 ft 388 kts 291°
2026-04-29 19:34 40.60157 -3.13275 31900 ft 389 kts 291°
2026-04-29 19:34 40.62605 -3.19615 31899 ft 389 kts 291°
2026-04-29 19:35 40.65056 -3.25972 31901 ft 390 kts 291°
2026-04-29 19:35 40.67505 -3.32337 31890 ft 390 kts 291°
2026-04-29 19:36 40.69929 -3.38694 31888 ft 391 kts 291°
2026-04-29 19:36 40.72378 -3.45082 31890 ft 390 kts 291°
2026-04-29 19:37 40.74819 -3.51462 31889 ft 389 kts 290°
2026-04-29 19:37 40.77249 -3.57833 31902 ft 388 kts 290°
2026-04-29 19:38 40.79672 -3.64207 31906 ft 389 kts 290°
2026-04-29 19:38 40.82093 -3.70590 31910 ft 389 kts 290°
2026-04-29 19:39 40.84518 -3.76998 31910 ft 390 kts 290°
2026-04-29 19:39 40.86941 -3.83411 31913 ft 390 kts 290°
2026-04-29 19:40 40.89362 -3.89832 31912 ft 390 kts 290°
2026-04-29 19:40 40.91777 -3.96255 31920 ft 391 kts 290°
2026-04-29 19:41 40.94198 -4.02706 31921 ft 392 kts 290°
2026-04-29 19:41 40.96626 -4.09193 31912 ft 394 kts 290°
2026-04-29 19:42 40.99042 -4.15661 31919 ft 395 kts 290°
2026-04-29 19:42 41.01478 -4.22195 31918 ft 396 kts 290°
2026-04-29 19:43 41.03917 -4.28747 31917 ft 397 kts 290°
2026-04-29 19:43 41.06358 -4.35313 31912 ft 397 kts 290°
2026-04-29 19:44 41.08792 -4.41877 31917 ft 397 kts 290°
2026-04-29 19:44 41.11224 -4.48453 31920 ft 397 kts 290°
2026-04-29 19:45 41.13652 -4.55032 31924 ft 397 kts 290°
2026-04-29 19:45 41.16075 -4.61610 31938 ft 397 kts 290°
2026-04-29 19:46 41.18493 -4.68198 31942 ft 397 kts 290°
2026-04-29 19:46 41.20910 -4.74797 31936 ft 398 kts 290°
2026-04-29 19:47 41.23329 -4.81369 31927 ft 398 kts 290°
2026-04-29 19:47 41.25695 -4.88004 31948 ft 396 kts 290°
2026-04-29 19:48 41.28122 -4.94604 31942 ft 398 kts 290°
2026-04-29 19:48 41.30534 -5.01223 31940 ft 399 kts 290°
2026-04-29 19:49 41.32944 -5.07886 31939 ft 400 kts 290°
2026-04-29 19:49 41.35354 -5.14562 31936 ft 401 kts 290°
2026-04-29 19:50 41.37766 -5.21263 31939 ft 401 kts 290°
2026-04-29 19:50 41.40178 -5.27971 31931 ft 402 kts 290°
2026-04-29 19:51 41.42593 -5.34706 31935 ft 403 kts 290°
2026-04-29 19:51 41.44600 -5.40312 31933 ft 404 kts 290°
2026-04-29 19:52 41.47013 -5.47074 31941 ft 404 kts 290°
2026-04-29 19:52 41.49427 -5.53851 31930 ft 405 kts 290°
2026-04-29 19:53 41.51842 -5.60653 31937 ft 406 kts 290°
2026-04-29 19:53 41.54629 -5.67251 31949 ft 412 kts 300°
2026-04-29 19:54 41.59620 -5.76644 31932 ft 414 kts 301°
2026-04-29 19:54 41.62946 -5.82941 31939 ft 415 kts 301°
2026-04-29 19:55 41.66260 -5.89286 31930 ft 417 kts 301°
2026-04-29 19:55 41.69574 -5.95658 31916 ft 418 kts 301°
2026-04-29 19:56 41.72893 -6.02051 31916 ft 418 kts 301°
2026-04-29 19:56 41.76183 -6.08406 31923 ft 418 kts 301°
2026-04-29 19:57 41.79491 -6.14805 31912 ft 417 kts 301°
2026-04-29 19:57 41.82789 -6.21196 31921 ft 417 kts 301°
2026-04-29 19:58 41.86082 -6.27597 31923 ft 416 kts 301°
2026-04-29 19:58 41.89363 -6.33987 31909 ft 411 kts 301°
2026-04-29 19:59 41.92559 -6.40219 31905 ft 401 kts 301°
2026-04-29 19:59 41.95720 -6.46407 31766 ft 404 kts 301°
2026-04-29 20:00 41.97301 -6.49506 31496 ft 399 kts 301°
2026-04-29 20:00 41.98860 -6.52563 31125 ft 396 kts 301°
2026-04-29 20:00 42.00411 -6.55606 30773 ft 392 kts 301°
2026-04-29 20:00 42.01944 -6.58618 30415 ft 390 kts 302°
2026-04-29 20:01 42.03468 -6.61617 30044 ft 387 kts 302°
2026-04-29 20:01 42.04982 -6.64601 29686 ft 385 kts 302°
2026-04-29 20:01 42.06485 -6.67563 29311 ft 382 kts 302°
2026-04-29 20:01 42.07983 -6.70519 28928 ft 380 kts 302°
2026-04-29 20:02 42.09468 -6.73450 28548 ft 378 kts 302°
2026-04-29 20:02 42.10925 -6.76330 28176 ft 376 kts 302°
2026-04-29 20:02 42.12413 -6.79275 27782 ft 374 kts 302°
2026-04-29 20:02 42.13378 -6.81188 27543 ft 372 kts 302°
2026-04-29 20:03 42.15299 -6.84996 27042 ft 370 kts 302°
2026-04-29 20:03 42.16739 -6.87854 26670 ft 368 kts 302°
2026-04-29 20:03 42.18173 -6.90701 26301 ft 366 kts 302°
2026-04-29 20:03 42.19602 -6.93543 25927 ft 365 kts 302°
2026-04-29 20:04 42.21024 -6.96369 25535 ft 363 kts 302°
2026-04-29 20:04 42.23768 -7.01844 24809 ft 359 kts 302°
2026-04-29 20:04 42.26538 -7.07379 24100 ft 354 kts 302°
2026-04-29 20:04 42.28506 -7.11315 23536 ft 352 kts 302°
2026-04-29 20:05 42.31237 -7.16776 22813 ft 349 kts 302°
2026-04-29 20:05 42.33933 -7.22180 22096 ft 345 kts 302°
2026-04-29 20:05 42.36591 -7.27517 21393 ft 340 kts 302°
2026-04-29 20:05 42.39221 -7.32806 20701 ft 336 kts 302°
2026-04-29 20:06 42.41669 -7.37740 20054 ft 333 kts 302°
2026-04-29 20:06 42.43601 -7.41642 19539 ft 330 kts 302°
2026-04-29 20:06 42.46130 -7.46761 18857 ft 326 kts 302°
2026-04-29 20:06 42.47888 -7.50322 18384 ft 324 kts 302°
2026-04-29 20:07 42.50381 -7.55369 17723 ft 320 kts 301°
2026-04-29 20:07 42.52840 -7.60357 17059 ft 317 kts 301°
2026-04-29 20:07 42.55270 -7.65295 16402 ft 313 kts 301°
2026-04-29 20:07 42.57676 -7.70193 15759 ft 310 kts 301°
2026-04-29 20:08 42.60055 -7.75043 15104 ft 308 kts 301°
2026-04-29 20:08 42.61619 -7.78238 14675 ft 306 kts 301°
2026-04-29 20:08 42.64753 -7.84648 13809 ft 302 kts 300°
2026-04-29 20:08 42.67060 -7.89375 13166 ft 299 kts 300°
2026-04-29 20:09 42.69337 -7.94049 12536 ft 295 kts 300°
2026-04-29 20:09 42.71594 -7.98688 11910 ft 292 kts 300°
2026-04-29 20:09 42.73797 -8.03222 11299 ft 290 kts 300°
2026-04-29 20:09 42.75349 -8.06422 10861 ft 288 kts 300°
2026-04-29 20:10 42.76855 -8.09538 10402 ft 287 kts 300°
2026-04-29 20:10 42.77947 -8.11804 10089 ft 285 kts 301°
2026-04-29 20:10 42.79021 -8.14030 9947 ft 277 kts 301°
2026-04-29 20:10 42.80066 -8.16197 9733 ft 272 kts 300°
2026-04-29 20:11 42.81098 -8.18344 9458 ft 270 kts 301°
2026-04-29 20:11 42.82125 -8.20478 9183 ft 268 kts 301°
2026-04-29 20:11 42.83671 -8.23698 8758 ft 267 kts 301°
2026-04-29 20:11 42.85700 -8.27929 8183 ft 265 kts 301°
2026-04-29 20:12 42.87703 -8.32110 7607 ft 263 kts 301°
2026-04-29 20:12 42.89691 -8.36260 7047 ft 260 kts 301°
2026-04-29 20:12 42.91016 -8.38687 6584 ft 265 kts 320°
2026-04-29 20:12 42.92611 -8.39939 6301 ft 265 kts 333°
2026-04-29 20:13 42.95499 -8.41768 5787 ft 265 kts 333°
2026-04-29 20:13 42.98765 -8.43981 5299 ft 259 kts 332°
2026-04-29 20:13 43.00374 -8.45091 5186 ft 245 kts 334°
2026-04-29 20:13 43.01950 -8.45814 5109 ft 233 kts 344°
2026-04-29 20:14 43.03478 -8.46355 4999 ft 222 kts 339°
2026-04-29 20:14 43.04782 -8.47427 4937 ft 219 kts 321°
2026-04-29 20:14 43.05997 -8.48692 4861 ft 221 kts 322°
2026-04-29 20:14 43.07233 -8.49973 4759 ft 225 kts 322°
2026-04-29 20:15 43.08488 -8.51264 4593 ft 224 kts 324°
2026-04-29 20:15 43.09903 -8.52074 4355 ft 215 kts 349°
2026-04-29 20:15 43.11322 -8.51940 4163 ft 203 kts 23°
2026-04-29 20:15 43.12415 -8.50781 3760 ft 201 kts 57°
2026-04-29 20:16 43.12788 -8.48981 3397 ft 199 kts 96°
2026-04-29 20:16 43.12275 -8.47280 3145 ft 193 kts 135°
2026-04-29 20:16 43.11160 -8.46476 3084 ft 179 kts 175°
2026-04-29 20:16 43.09986 -8.46834 3098 ft 173 kts 206°
2026-04-29 20:17 43.08873 -8.47476 3060 ft 176 kts 185°
2026-04-29 20:17 43.07691 -8.47166 3095 ft 176 kts 166°
2026-04-29 20:17 43.06490 -8.46937 3078 ft 170 kts 174°
2026-04-29 20:17 43.05352 -8.46720 3058 ft 160 kts 170°
2026-04-29 20:18 43.04263 -8.46413 3112 ft 157 kts 167°
2026-04-29 20:18 43.03213 -8.46078 3094 ft 155 kts 166°
2026-04-29 20:18 43.02167 -8.45730 3096 ft 155 kts 166°
2026-04-29 20:18 43.01117 -8.45376 3089 ft 155 kts 166°
2026-04-29 20:19 43.00056 -8.45021 2989 ft 158 kts 166°
2026-04-29 20:19 42.98992 -8.44661 2790 ft 156 kts 166°
2026-04-29 20:19 42.97962 -8.44315 2591 ft 154 kts 167°
2026-04-29 20:19 42.96905 -8.43960 2395 ft 155 kts 167°
2026-04-29 20:20 42.95862 -8.43609 2186 ft 154 kts 167°
2026-04-29 20:20 42.94822 -8.43259 1983 ft 154 kts 167°
2026-04-29 20:20 42.93782 -8.42908 1776 ft 154 kts 167°
2026-04-29 20:20 42.92747 -8.42560 1575 ft 153 kts 167°
2026-04-29 20:21 42.91728 -8.42219 1324 ft 154 kts 166°
2026-04-29 20:21 42.90705 -8.41856 1191 ft 147 kts 166°
2026-04-29 20:21 42.89805 -8.41552 1191 ft 112 kts 169°
2026-04-29 20:21 42.89250 -8.41386 1199 ft 50 kts 166°
2026-04-29 20:22 42.89031 -8.41316 1202 ft 28 kts 167°
2026-04-29 20:22 42.88848 -8.41259 1204 ft 26 kts 167°
2026-04-29 20:22 42.88680 -8.41193 1206 ft 24 kts 164°
2026-04-29 20:22 42.88522 -8.41137 1210 ft 23 kts 167°
2026-04-29 20:23 42.88384 -8.41167 1210 ft 22 kts 247°
2026-04-29 20:23 42.88404 -8.41341 1209 ft 19 kts 341°
2026-04-29 20:23 42.88529 -8.41376 1207 ft 18 kts 345°
2026-04-29 20:23 42.88612 -8.41404 1206 ft 0 kts 346°